Temp
67 66 66 65 65 65 64 63 63 63 63 62 62 61 61 60 59 59 59 59 59 58 56 56 56 56 55 54 54 54 53 52 51 51 51 51 51 51 50 50 50 50
67 66 66 66 65 64 64 64 63 63 62 62 62 62 60 60 59 59 58 58 58 57 56 56 55 55 54 54 53 53 52 52 51 52 51 50 50 50 50 49 49 49
66 65 65 65 65 64 64 64 63 63 63 62 61 61 60 59 58 58 58 58 57 55 55 55 55 55 54 53 53 53 52 51 51 51 51 50 50 50 49 49 49 49
66 66 66 65 65 64 64 63 62 62 61 60 60 60 60 59 58 57 57 59 56 55 54 54 54 54 53 53 52 51 51 51 50 50 50 49 50 50 49 50 49 50
66 65 66 66 65 65 64 63 62 61 61 61 60 60 59 58 57 57 57 56 55 54 54 54 53 53 52 52 52 50 51 50 49 50 50 49 49 50 49 50 49 49
66 66 66 66 65 64 63 63 63 62 60 60 60 60 59 59 58 57 57 55 55 55 54 53 53 52 52 52 51 51 50 50 49 50 50 50 49 50 50 50 50 49
65 65 65 65 64 64 64 63 63 62 61 61 60 59 59 58 58 57 57 56 55 55 54 53 52 51 51 51 51 50 50 50 49 50 50 49 50 49 50 50 50 49
65 65 65 65 64 64 63 63 63 62 62 61 60 59 59 59 58 57 56 56 55 55 54 54 53 52 51 51 51 49 49 50 49 50 50 49 49 49 49 49 49 49
65 65 65 65 64 64 63 63 63 63 63 61 61 60 60 59 58 57 56 56 55 54 54 53 53 52 51 51 51 50 50 49 50 50 50 49 49 49 49 48 49 48
65 65 65 65 64 64 63 63 63 63 63 62 62 60 59 59 58 57 56 56 55 55 54 53 52 51 51 51 51 51 50 50 49 50 50 50 50 49 48 49 49 47
65 66 65 64 64 64 63 62 62 62 62 63 61 60 60 59 58 57 57 57 55 55 54 53 52 51 51 51 51 51 51 50 50 50 49 50 49 49 50 49 49 49
65 65 65 64 64 63 63 63 63 62 62 62 62 60 59 59 58 58 58 57 57 56 55 54 52 52 52 51 51 50 50 50 50 50 49 49 49 49 50 49 49 48
65 65 65 65 64 64 64 63 63 62 62 62 62 61 59 59 58 58 58 58 57 55 54 53 52 52 51 51 51 50 50 50 49 49 49 49 49 49 49 49 49 48
66 66 65 65 64 64 64 63 63 63 63 63 62 60 60 59 58 58 57 58 56 55 54 53 52 51 51 51 51 50 50 50 49 49 49 49 48 48 48 49 48 48
66 66 66 65 64 64 64 63 63 63 63 62 61 60 59 59 59 58 57 56 55 54 53 52 51 51 51 50 50 50 50 49 49 49 49 49 48 47 47 48 48 48
67 66 65 65 64 64 64 63 63 62 62 61 60 60 59 58 58 58 57 56 54 53 52 51 51 51 52 51 51 50 49 49 49 49 50 49 48 47 46 47 47 47
66 65 65 64 64 64 63 63 62 61 61 60 59 59 58 57 57 56 56 55 54 53 51 51 51 51 49 45 46 48 50 49 49 49 50 49 49 48 47 46 46 46
66 65 64 64 64 64 63 62 61 61 60 59 58 57 57 57 56 56 56 55 54 53 52 52 51 50 45 45 45 46 49 50 50 49 49 49 49 48 47 47 47 46
65 64 64 64 64 63 63 62 61 60 59 58 57 57 57 56 57 55 55 55 54 53 53 52 51 47 44 44 44 45 46 50 50 49 48 48 48 49 48 48 47 47
65 64 63 63 63 63 63 62 60 60 59 59 58 57 56 55 55 55 55 54 54 53 52 52 52 47 44 44 44 44 44 47 49 48 49 49 49 49 48 48 47 48
64 64 63 63 63 63 62 61 60 59 59 59 58 57 56 56 56 55 54 54 53 53 53 52 52 45 43 43 43 44 43 47 50 49 48 48 49 49 49 48 48 48
64 63 63 63 62 62 61 61 60 59 59 58 58 57 56 56 53 55 54 54 54 53 53 51 51 43 43 43 43 43 44 50 49 49 49 48 48 48 49 49 49 49
64 63 62 62 62 61 60 60 59 58 58 59 58 57 56 54 54 55 55 55 54 54 53 52 50 44 43 43 43 43 46 50 49 49 49 48 48 48 48 49 49 50
64 63 62 61 61 61 61 61 60 60 58 58 57 56 56 56 55 52 52 52 52 52 53 52 51 46 43 43 43 43 48 49 47 48 48 48 48 48 49 49 50 51
64 63 62 61 60 61 61 60 60 59 59 58 57 56 55 54 52 51 51 51 51 52 53 53 51 47 42 42 42 43 48 48 48 49 48 47 47 47 48 49 49 52
64 62 62 62 61 61 60 59 58 58 57 56 55 54 53 52 51 51 50 49 50 50 52 52 50 48 45 42 43 43 46 51 51 49 48 47 48 48 47 47 48 49
MSLP
1012.35 1012.79 1013.15 1013.43 1013.63 1013.79 1014.15 1014.51 1014.87 1015.19 1015.51 1015.87 1016.15 1016.43 1016.67 1017.15 1017.51 1017.75 1017.95 1018.19 1018.39 1018.59 1018.87 1019.07 1019.39 1019.71 1020.03 1020.27 1020.35 1020.43 1020.51 1020.59 1020.79 1020.91 1020.91 1021.03 1021.15 1021.27 1021.35 1021.51 1021.67 1021.63
1012.07 1012.51 1012.83 1013.11 1013.39 1013.55 1013.75 1013.99 1014.51 1014.83 1015.27 1015.55 1015.79 1016.15 1016.67 1016.99 1017.35 1017.59 1017.87 1018.15 1018.39 1018.59 1018.87 1019.11 1019.39 1019.67 1019.99 1020.19 1020.35 1020.35 1020.59 1020.67 1020.75 1021.07 1020.99 1021.07 1021.35 1021.47 1021.47 1021.67 1021.71 1022.15
1011.91 1012.27 1012.55 1012.75 1012.95 1013.31 1013.63 1014.03 1014.35 1014.63 1014.99 1015.35 1015.67 1016.03 1016.47 1016.83 1017.19 1017.55 1017.79 1018.03 1018.31 1018.67 1018.91 1019.15 1019.43 1019.75 1019.99 1020.23 1020.35 1020.39 1020.51 1020.67 1020.79 1021.15 1021.15 1021.23 1021.55 1021.47 1021.79 1021.95 1022.07 1022.03
1011.59 1011.87 1012.19 1012.51 1012.75 1013.11 1013.51 1013.99 1014.39 1014.67 1014.99 1015.39 1015.59 1015.83 1016.19 1016.67 1017.07 1017.43 1017.75 1017.99 1018.27 1018.63 1018.91 1019.19 1019.43 1019.83 1020.07 1020.27 1020.39 1020.55 1020.71 1020.83 1021.03 1021.15 1021.27 1021.63 1021.71 1021.71 1021.91 1022.03 1022.15 1022.31
1011.11 1011.59 1011.91 1012.19 1012.47 1012.87 1013.27 1013.71 1014.15 1014.47 1014.79 1015.03 1015.43 1015.75 1016.11 1016.59 1017.03 1017.35 1017.63 1017.91 1018.19 1018.55 1018.87 1019.15 1019.55 1019.83 1020.07 1020.27 1020.39 1020.59 1020.83 1020.95 1021.23 1021.23 1021.27 1021.51 1021.83 1021.83 1021.99 1021.99 1022.03 1022.23
1010.91 1011.19 1011.51 1011.87 1012.19 1012.59 1013.03 1013.35 1013.71 1014.15 1014.59 1015.03 1015.19 1015.51 1015.87 1016.31 1016.71 1017.07 1017.39 1017.75 1018.15 1018.43 1018.79 1019.19 1019.51 1019.87 1020.07 1020.23 1020.47 1020.59 1020.83 1021.03 1021.27 1021.31 1021.35 1021.47 1021.83 1021.99 1021.99 1022.03 1022.03 1022.19
1010.59 1010.95 1011.35 1011.63 1012.07 1012.35 1012.63 1013.03 1013.43 1013.83 1014.23 1014.51 1015.03 1015.43 1015.75 1016.19 1016.55 1016.87 1017.23 1017.55 1017.99 1018.31 1018.67 1019.07 1019.43 1019.79 1020.11 1020.27 1020.47 1020.71 1020.95 1021.03 1021.23 1021.31 1021.35 1021.71 1021.79 1021.99 1022.15 1022.11 1022.11 1022.31
1010.35 1010.75 1011.11 1011.47 1011.87 1012.19 1012.47 1012.79 1013.15 1013.51 1013.91 1014.43 1014.83 1015.23 1015.55 1015.91 1016.31 1016.75 1017.11 1017.47 1017.83 1018.23 1018.63 1019.03 1019.35 1019.67 1020.03 1020.19 1020.39 1020.71 1020.99 1021.15 1021.23 1021.31 1021.47 1021.71 1021.83 1021.87 1022.19 1022.31 1022.35 1022.43
1010.11 1010.55 1010.83 1011.23 1011.59 1011.95 1012.23 1012.51 1012.87 1013.23 1013.59 1014.03 1014.47 1014.95 1015.35 1015.63 1016.03 1016.51 1016.95 1017.35 1017.71 1018.15 1018.59 1018.99 1019.31 1019.63 1019.91 1020.03 1020.27 1020.47 1020.71 1021.03 1021.15 1021.23 1021.35 1021.63 1021.75 1021.95 1022.15 1022.39 1022.43 1022.55
1009.79 1010.11 1010.51 1010.87 1011.27 1011.55 1011.91 1012.27 1012.63 1012.99 1013.31 1013.75 1014.11 1014.59 1015.03 1015.51 1015.87 1016.27 1016.75 1017.15 1017.59 1018.07 1018.47 1018.83 1019.23 1019.55 1019.79 1019.91 1020.07 1020.31 1020.55 1020.79 1021.07 1021.23 1021.35 1021.51 1021.67 1021.95 1022.15 1022.27 1022.39 1022.67
1009.43 1009.75 1010.11 1010.47 1010.83 1011.19 1011.59 1012.03 1012.35 1012.71 1013.11 1013.43 1013.87 1014.35 1014.75 1015.23 1015.79 1016.15 1016.59 1016.99 1017.35 1017.79 1018.23 1018.59 1018.95 1019.27 1019.55 1019.87 1020.07 1020.19 1020.31 1020.59 1020.87 1021.15 1021.35 1021.51 1021.63 1021.83 1021.99 1022.15 1022.43 1022.55
1008.95 1009.35 1009.63 1009.95 1010.39 1010.87 1011.27 1011.67 1012.11 1012.51 1012.87 1013.23 1013.51 1013.99 1014.55 1014.95 1015.35 1015.87 1016.19 1016.59 1016.99 1017.47 1017.83 1018.27 1018.75 1019.07 1019.31 1019.55 1019.87 1020.11 1020.35 1020.55 1020.79 1021.03 1021.27 1021.43 1021.67 1021.83 1021.99 1022.23 1022.39 1022.67
1008.43 1008.75 1009.11 1009.63 1010.07 1010.47 1010.91 1011.35 1011.75 1012.15 1012.55 1012.95 1013.31 1013.71 1014.23 1014.71 1015.19 1015.59 1015.95 1016.27 1016.75 1017.19 1017.67 1018.11 1018.59 1018.91 1019.19 1019.47 1019.75 1019.99 1020.23 1020.51 1020.79 1021.03 1021.23 1021.43 1021.63 1021.79 1022.03 1022.23 1022.43 1022.71
1007.87 1008.27 1008.79 1009.27 1009.79 1010.27 1010.59 1010.95 1011.35 1011.75 1012.19 1012.59 1013.07 1013.55 1013.99 1014.35 1014.83 1015.27 1015.71 1016.11 1016.59 1017.03 1017.51 1017.95 1018.39 1018.83 1019.11 1019.39 1019.67 1019.91 1020.19 1020.43 1020.67 1020.91 1021.19 1021.47 1021.67 1021.87 1022.07 1022.27 1022.51 1022.75
1007.55 1008.07 1008.47 1008.99 1009.51 1009.99 1010.39 1010.79 1011.11 1011.31 1011.79 1012.35 1012.83 1013.23 1013.67 1014.03 1014.47 1014.95 1015.55 1016.11 1016.63 1017.03 1017.51 1017.91 1018.23 1018.55 1018.91 1019.23 1019.59 1019.95 1020.07 1020.35 1020.63 1020.83 1021.07 1021.31 1021.67 1021.91 1022.15 1022.31 1022.55 1022.75
1007.23 1007.75 1008.19 1008.67 1009.23 1009.67 1010.07 1010.47 1010.95 1011.35 1011.67 1012.11 1012.63 1013.03 1013.55 1014.03 1014.43 1014.87 1015.23 1015.71 1016.39 1016.99 1017.39 1017.79 1018.11 1018.43 1018.63 1018.87 1019.11 1019.55 1019.99 1020.27 1020.55 1020.75 1020.91 1021.15 1021.47 1021.83 1022.15 1022.39 1022.43 1022.59
1006.99 1007.43 1007.87 1008.39 1008.75 1009.31 1009.79 1010.31 1010.79 1011.15 1011.55 1011.95 1012.39 1012.95 1013.43 1013.87 1014.27 1014.75 1015.19 1015.67 1016.11 1016.67 1017.19 1017.59 1017.91 1018.15 1018.35 1018.71 1019.03 1019.31 1019.67 1020.03 1020.31 1020.63 1020.79 1021.03 1021.35 1021.59 1021.91 1022.31 1022.55 1022.63
1006.59 1007.11 1007.59 1007.99 1008.47 1008.99 1009.47 1010.03 1010.55 1010.99 1011.39 1011.87 1012.27 1012.79 1013.23 1013.55 1014.03 1014.43 1014.87 1015.47 1016.03 1016.43 1016.79 1017.19 1017.59 1017.83 1018.15 1018.51 1018.87 1019.15 1019.39 1019.71 1020.07 1020.39 1020.67 1020.87 1021.11 1021.35 1021.67 1021.99 1022.23 1022.55
1006.23 1006.79 1007.27 1007.71 1008.11 1008.63 1009.19 1009.83 1010.31 1010.79 1011.23 1011.63 1011.95 1012.31 1012.95 1013.39 1013.75 1014.27 1014.67 1015.03 1015.51 1016.03 1016.55 1016.91 1017.27 1017.59 1017.91 1018.31 1018.63 1018.95 1019.19 1019.47 1019.87 1020.19 1020.55 1020.91 1021.19 1021.39 1021.59 1021.83 1022.11 1022.43
1005.91 1006.43 1006.91 1007.35 1007.83 1008.43 1008.99 1009.51 1010.03 1010.47 1010.83 1011.27 1011.47 1011.87 1012.47 1013.07 1013.59 1013.95 1014.11 1014.51 1015.03 1015.55 1015.91 1016.31 1016.83 1017.31 1017.67 1018.07 1018.39 1018.75 1019.03 1019.31 1019.71 1020.07 1020.39 1020.71 1020.99 1021.31 1021.55 1021.67 1021.99 1022.23
1005.67 1006.11 1006.59 1007.11 1007.55 1008.07 1008.71 1009.23 1009.71 1010.23 1010.63 1010.99 1011.39 1011.59 1012.03 1012.59 1013.11 1013.59 1013.79 1014.03 1014.55 1015.03 1015.59 1016.11 1016.35 1016.87 1017.35 1017.79 1018.15 1018.55 1018.87 1019.11 1019.51 1019.83 1020.15 1020.47 1020.79 1021.07 1021.31 1021.51 1021.91 1022.07
1005.35 1005.87 1006.31 1006.79 1007.35 1007.83 1008.31 1008.87 1009.39 1009.83 1010.19 1010.71 1011.23 1011.59 1011.79 1012.07 1012.83 1013.11 1013.27 1013.63 1014.11 1014.71 1015.31 1015.87 1016.19 1016.63 1017.07 1017.55 1017.99 1018.35 1018.67 1018.91 1019.35 1019.71 1020.07 1020.39 1020.75 1021.07 1021.27 1021.51 1021.79 1021.95
1005.03 1005.59 1006.11 1006.47 1006.95 1007.71 1008.19 1008.51 1009.03 1009.55 1009.99 1010.35 1010.75 1011.19 1011.59 1012.07 1012.43 1012.83 1013.19 1013.23 1013.59 1014.19 1014.75 1015.35 1015.91 1016.43 1016.79 1017.27 1017.75 1018.11 1018.43 1018.79 1019.23 1019.59 1019.95 1020.27 1020.55 1020.91 1021.15 1021.43 1021.71 1021.83
1004.79 1005.23 1005.83 1006.39 1006.75 1007.19 1007.79 1008.23 1008.63 1009.11 1009.67 1009.99 1010.23 1010.79 1011.39 1011.71 1012.15 1012.91 1013.47 1013.75 1013.79 1014.03 1014.31 1014.91 1015.51 1016.19 1016.63 1017.11 1017.47 1017.83 1018.07 1018.67 1019.11 1019.39 1019.79 1020.07 1020.43 1020.75 1020.99 1021.19 1021.43 1021.51
1004.63 1005.03 1005.51 1006.07 1006.63 1006.95 1007.31 1007.83 1008.27 1008.71 1009.07 1009.51 1009.83 1010.43 1010.99 1011.55 1012.03 1012.63 1013.31 1013.71 1013.87 1014.11 1014.55 1014.75 1015.31 1016.07 1016.63 1016.95 1017.27 1017.63 1017.87 1018.19 1018.67 1019.11 1019.63 1019.95 1020.27 1020.63 1020.87 1021.03 1021.31 1021.39
1004.39 1004.91 1005.27 1005.59 1006.03 1006.67 1007.27 1007.55 1007.91 1008.47 1008.95 1009.43 1009.99 1010.39 1010.75 1011.27 1011.95 1012.51 1013.19 1013.79 1013.91 1014.19 1014.59 1014.75 1015.23 1015.95 1016.47 1016.67 1016.99 1017.31 1017.43 1017.87 1018.47 1018.87 1019.31 1019.75 1020.03 1020.27 1020.75 1021.03 1021.19 1021.35
Wind_Speed
11 10 11 10 10 9 11 11 9 10 9 8 9 8 9 7 7 7 6 6 6 6 6 6 6 6 5 5 4 4 4 5 4 4 5 5 5 7 6 6 5 5
12 11 10 9 9 9 10 10 11 10 10 9 8 7 7 8 7 8 8 7 6 6 6 6 6 6 6 5 5 5 4 4 5 2 6 6 5 5 6 6 6 5
11 12 12 13 12 11 11 9 9 9 9 8 7 7 7 7 8 7 7 8 7 7 6 6 6 6 5 5 5 5 5 5 6 4 5 6 5 6 5 6 5 6
13 13 12 11 11 11 10 9 8 7 7 8 9 8 8 7 8 8 7 7 8 7 7 7 7 6 6 6 6 5 5 4 5 6 6 4 4 6 6 5 6 6
14 12 11 11 10 11 10 11 11 9 10 9 8 8 8 8 8 8 8 7 7 8 7 7 6 6 6 6 6 6 5 5 5 6 6 6 4 5 5 6 7 7
12 12 12 12 11 12 11 12 11 11 10 10 10 9 9 10 9 9 8 8 7 7 7 7 7 6 6 6 5 5 6 6 5 6 7 7 6 4 5 6 7 7
14 13 13 11 12 12 12 11 11 10 10 10 9 9 9 10 9 9 9 9 9 8 8 8 7 7 6 6 6 6 5 6 6 6 7 6 6 6 4 6 7 7
13 12 12 11 13 12 12 11 11 11 10 9 11 10 10 11 10 9 8 9 9 8 8 8 7 8 7 6 7 7 6 5 6 7 7 7 6 7 5 5 6 8
13 12 13 14 14 12 12 12 11 11 10 11 11 10 9 10 10 10 10 9 9 9 8 8 8 8 7 7 7 8 8 6 6 7 8 8 7 7 7 6 7 7
14 13 15 14 15 13 14 12 11 11 10 11 10 10 11 8 9 10 10 10 9 8 8 9 8 8 7 7 9 9 8 8 7 7 7 7 8 8 7 7 8 7
15 14 15 16 15 13 14 13 12 11 10 11 10 10 10 10 8 9 10 10 9 9 10 10 10 9 9 8 7 7 9 8 8 7 7 7 7 8 7 7 7 7
16 15 16 17 15 14 14 14 12 11 11 10 12 12 11 10 11 10 10 11 10 10 10 9 9 9 9 9 9 8 7 7 7 7 7 7 7 7 7 7 7 8
16 16 15 15 14 13 13 13 13 13 13 12 11 12 12 11 10 11 9 10 10 10 9 9 9 9 8 8 8 8 8 8 7 7 7 6 6 7 7 7 7 7
16 15 14 14 13 12 13 14 14 14 13 12 11 12 12 12 12 12 10 9 9 9 9 9 9 8 8 8 8 8 8 8 8 8 7 6 6 6 6 6 7 7
14 13 12 13 13 13 13 13 13 14 13 12 12 11 10 11 11 11 11 9 8 8 9 8 9 8 8 8 8 8 7 8 8 8 8 8 7 6 6 6 6 6
14 13 13 13 14 14 13 13 12 12 12 13 12 11 11 10 10 10 11 12 11 9 8 8 7 6 9 13 11 9 8 7 7 8 8 8 8 7 6 5 7 7
13 13 14 15 14 13 12 13 12 12 12 12 12 11 12 11 11 11 10 10 11 11 10 8 7 7 14 14 14 14 10 8 8 8 8 8 8 8 8 7 5 5
13 14 14 15 14 14 14 13 12 12 12 12 12 12 11 11 12 12 11 10 9 10 10 9 8 10 16 15 15 15 12 9 8 8 8 8 8 8 8 7 7 6
13 14 15 14 14 14 13 12 12 12 12 13 14 12 11 11 12 11 11 11 11 12 10 9 8 13 16 16 15 16 15 11 8 8 8 8 8 8 8 8 7 6
14 14 15 15 14 13 12 13 13 13 13 11 12 13 13 12 12 13 12 13 12 12 12 11 10 13 17 17 16 16 15 12 8 9 8 9 9 8 7 8 8 8
14 14 15 14 14 14 14 13 13 12 13 11 10 12 13 13 14 13 12 13 13 12 10 10 9 16 18 18 17 17 16 12 8 8 8 8 7 8 8 9 9 8
14 14 14 14 13 13 14 15 14 14 14 11 9 9 9 10 11 11 13 14 13 12 11 10 9 17 18 18 18 17 17 9 9 9 8 8 8 7 7 8 8 8
14 14 13 14 15 13 13 14 13 12 11 10 12 11 12 12 12 12 11 13 14 13 13 10 9 16 19 19 18 19 14 8 8 8 8 8 8 8 8 8 7 7
13 14 14 12 13 15 15 13 12 11 12 11 12 12 12 12 11 7 4 6 10 12 13 12 10 14 19 18 19 19 14 10 8 9 8 8 8 7 7 7 8 13
12 13 14 13 12 13 14 14 13 12 11 12 12 10 10 9 9 10 9 9 10 10 9 11 10 12 17 18 19 19 14 11 10 8 9 8 8 7 6 6 6 9
11 12 13 15 15 14 10 10 9 10 11 10 8 9 11 10 9 9 9 8 8 9 11 11 11 11 15 19 19 19 18 12 9 9 9 9 8 7 6 6 6 6
Wind_Direction
184 179 179 180 180 176 173 174 173 171 178 170 172 180 174 154 158 164 161 157 160 152 149 147 137 136 131 137 136 117 121 123 118 136 133 132 136 146 147 151 149 148
185 179 178 176 176 178 181 173 168 173 175 174 176 163 149 155 162 160 159 158 154 152 146 143 140 139 145 144 143 130 118 125 119 122 128 127 133 131 136 143 134 129
179 180 180 182 181 178 174 168 169 171 169 170 158 157 156 159 157 161 159 158 154 149 149 143 138 142 144 143 141 136 137 136 128 123 113 128 135 132 132 129 119 129
184 183 182 181 177 174 168 161 165 162 150 153 170 166 159 160 157 156 158 156 149 149 144 141 143 140 141 141 133 122 130 121 127 127 113 103 121 129 131 122 114 103
181 180 181 178 174 170 167 167 167 166 167 169 156 155 153 153 156 159 158 152 149 143 143 141 136 143 142 141 138 126 127 124 130 129 127 126 134 129 137 126 121 114
181 180 177 176 173 170 173 175 172 167 164 161 169 163 162 159 161 163 160 152 150 145 143 136 141 145 148 141 134 137 137 135 142 135 130 136 132 119 129 128 124 119
181 177 177 173 171 175 175 176 172 170 170 169 157 166 158 161 164 163 160 154 149 152 151 151 151 150 149 140 132 130 133 136 141 142 134 134 129 119 113 124 122 116
177 175 171 172 172 176 177 175 174 173 170 158 166 164 164 164 163 158 155 153 153 152 154 151 153 152 149 145 138 136 137 148 147 143 137 135 135 132 132 118 126 118
171 173 173 174 174 177 179 177 176 172 169 168 168 163 167 166 161 157 155 154 151 152 151 153 156 155 158 153 151 151 150 158 160 154 150 145 144 142 139 132 120 120
176 175 174 176 177 178 178 177 173 174 172 172 170 162 164 163 158 154 152 155 153 151 154 153 153 158 158 162 158 156 156 158 161 160 153 151 147 145 145 144 137 124
178 176 178 178 178 176 176 173 174 173 173 171 164 167 165 154 155 153 154 158 160 159 151 160 165 160 158 159 161 162 161 160 160 152 149 148 151 151 152 146 142 138
179 180 181 180 177 175 174 173 172 173 174 174 169 166 163 165 161 164 166 167 164 165 164 161 159 163 164 163 161 158 156 156 151 149 147 147 147 148 144 146 143 140
181 184 181 178 176 175 172 172 173 173 175 175 171 166 165 165 167 165 171 166 165 160 160 158 159 161 162 162 159 155 153 147 143 142 142 142 145 143 141 140 141 140
185 180 177 176 174 173 175 176 174 173 176 171 166 167 169 168 167 171 166 164 161 163 160 155 154 157 161 161 158 157 152 152 150 146 142 139 137 136 136 141 145 148
178 176 173 171 171 174 177 179 180 174 169 166 169 169 170 171 168 162 156 156 151 153 153 155 158 164 165 161 156 158 155 151 152 149 149 146 139 133 133 138 143 151
175 172 172 170 172 177 179 177 175 171 166 164 169 168 165 162 163 164 162 159 156 156 156 158 165 164 170 166 163 158 157 152 150 153 155 152 145 136 137 145 157 156
172 173 171 174 176 176 176 175 174 169 168 166 164 165 165 164 164 164 162 160 160 158 163 168 167 173 170 167 162 156 153 156 157 159 159 155 151 151 151 157 159 164
173 171 173 175 173 177 176 175 170 168 167 167 164 165 170 166 167 170 163 157 159 165 168 170 172 173 167 168 163 161 160 159 159 158 163 164 160 158 156 156 159 162
170 171 174 173 176 175 173 170 169 171 170 169 172 168 159 168 173 163 163 163 164 166 171 173 174 170 168 167 165 165 163 157 161 158 157 155 157 158 155 151 149 167
170 171 174 175 173 172 171 172 171 176 176 181 173 162 167 170 170 174 171 167 168 169 175 176 172 170 168 168 168 167 165 158 157 156 156 158 160 162 164 161 164 172
171 173 173 173 173 172 173 175 176 175 175 175 175 169 166 172 176 179 179 170 169 173 169 171 177 167 170 169 169 167 165 159 158 157 158 163 165 166 170 168 177 177
171 172 171 170 174 176 174 176 178 178 177 171 166 169 175 169 177 189 177 171 170 167 167 173 170 167 170 169 167 166 164 164 160 157 162 165 171 174 173 174 174 175
170 169 173 174 171 174 181 179 178 178 172 166 167 173 174 176 182 189 187 176 167 167 169 171 165 173 171 168 167 166 165 161 160 159 166 170 174 176 175 171 178 183
171 169 170 174 174 178 181 185 180 171 166 168 174 175 181 184 177 168 167 175 165 166 172 168 170 175 172 168 166 170 164 155 161 164 171 175 172 177 176 176 187 189
170 171 168 171 183 187 182 180 177 173 168 172 179 172 171 162 156 157 167 174 178 169 160 164 164 171 171 167 169 170 165 161 163 168 169 175 171 177 181 175 186 197
168 171 176 177 181 180 181 179 164 156 166 171 153 160 166 166 160 160 158 164 162 163 175 172 162 168 176 171 171 172 168 164 171 166 174 176 181 171 166 188 188 192